[[{"header":{"parameterUnit":"m.s-1","parameterCategory":1,"la1":30.2991,"la2":30.254,"lo1":-89.0895,"lo2":-89.0444,"dy":0.0017,"dx":0.0017,"nx":28,"ny":28,"refTime":"2025-05-16T03:00:00:Z","depth":0,"parameterNumber":2,"parameterNumberName":"U-component_of_WINDS"},"data":[0,0,0,0,0,0,0,0,0,0,0,0,0,0,0,0,0,0,0,0,0,0,0,0,0,0,0,0,0,0,0,0,0,0,0,0,0,0,0,0,0,0,0,0,0,0,0,0,0,0,0,0,0,0,0,0,0,0,2.278,2.2781,0,2.2851,2.2851,2.2852,2.284,2.2839,2.2837,2.2836,2.2905,2.2908,2.2911,0,0,0,0,0,0,0,0,0,0,0,0,0,2.2629,2.2632,2.278,2.2781,2.2782,2.2851,2.2852,2.2852,2.284,2.2838,2.2837,2.2836,2.2904,2.2908,2.2912,0,0,0,0,0,0,0,0,0,0,0,0,0,2.2697,2.2633,2.278,2.2784,2.2785,2.285,2.2852,2.2853,2.284,2.2838,2.2837,2.2835,2.2903,2.2908,2.2912,2.2977,0,0,2.2926,2.2928,0,0,0,0,0,0,0,0,2.2693,2.2702,2.2782,2.2784,2.2785,2.2835,2.2824,2.2894,2.2841,2.2819,2.2836,2.2834,2.2883,2.2889,2.2906,2.298,2.2983,2.2926,2.2929,2.2931,2.2932,0,0,0,0,0,0,0,2.2688,2.2699,2.2808,2.2783,2.2785,2.278,2.2788,2.2837,2.2861,2.2821,2.282,2.2829,2.2883,2.2902,2.2908,2.2984,2.2926,2.293,2.2933,2.2935,2.3112,2.3114,0,0,0,0,0,0,2.2683,2.2695,2.2805,2.281,2.2733,2.2785,2.2793,2.282,2.286,2.2864,2.283,2.2828,2.2895,2.2903,2.291,2.2987,2.2931,2.2935,2.2938,2.311,2.3112,2.3114,0,0,0,0,0,0,2.268,2.2693,2.2803,2.2752,2.2766,2.2789,2.282,2.2823,2.2841,2.2867,2.2871,2.2845,2.2894,2.2904,2.296,2.2989,2.2937,2.2941,2.3107,2.311,2.3113,2.3142,0,0,0,0,0,0,2.2675,2.2692,2.2718,2.2753,2.2769,2.2853,2.2822,2.2826,2.285,2.2847,2.2882,2.2886,2.2893,2.2953,2.2964,2.2994,2.2945,2.3105,2.3109,2.3112,2.3138,2.3146,2.3152,0,0,0,0,0,2.267,2.2723,2.2719,2.2733,2.2802,2.2855,2.2863,2.2871,2.2852,2.2878,2.2894,2.2885,2.2984,2.2959,2.2972,2.3003,2.3103,2.3108,2.3112,2.3135,2.3144,2.3151,0,0,0,0,0,0,2.269,2.2728,2.2724,2.279,2.2819,2.2852,2.2885,2.2881,2.2915,2.2911,2.2919,2.2927,2.2983,2.2999,2.297,2.3067,2.3041,2.3048,2.3054,2.3063,2.3069,2.3064,2.2948,0,0,0,0,0,2.2702,2.2743,2.2773,2.2829,2.2843,2.2862,2.2885,2.2888,2.2918,2.293,2.2951,2.2979,2.3016,2.304,2.3076,2.3141,2.3147,2.3169,2.3175,2.318,2.3186,2.3219,2.3228,2.3129,2.3129,2.3129,0,0,2.2727,2.2753,2.2778,2.2833,2.2856,2.2896,2.2872,2.2916,2.2945,2.2937,2.299,2.3006,2.3038,2.3098,2.3125,2.3113,2.3215,2.3186,2.319,2.3193,2.3224,2.3234,2.3242,2.3132,2.3132,2.3131,0,0,2.2794,2.2819,2.2866,2.289,2.2925,2.2936,2.2948,2.2981,2.2991,2.3046,2.3039,2.3074,2.3138,2.3161,2.318,2.3253,2.3246,2.3265,2.3299,2.333,2.3338,2.3345,2.3369,2.3378,2.3271,2.3271,2.3271,0,2.2821,2.2883,2.2891,2.2936,2.2959,2.2953,2.3,2.3022,2.3067,2.3082,2.3068,2.3148,2.3169,2.3233,2.325,2.3267,2.3279,2.326,2.3337,2.3344,2.335,2.3373,2.3382,2.3273,2.3272,2.3272,2.3272,0,2.2912,2.2955,2.2989,2.3033,2.306,2.3106,2.3119,2.3146,2.3146,2.3159,2.3213,2.3238,2.3278,2.3293,2.3295,2.3357,2.3347,2.3335,2.3309,2.3361,2.3383,2.3392,2.3275,2.3275,2.3274,2.3274,0,0,2.2994,2.3041,2.3053,2.3072,2.311,2.3142,2.3186,2.3226,2.3247,2.3277,2.3313,2.3367,2.3355,2.3378,2.3381,2.3409,2.3462,2.3393,2.3394,2.3403,2.3529,2.3538,2.3548,2.3458,2.346,2.3461,2.3526,0,2.3062,2.3142,2.315,2.322,2.3258,2.3253,2.3291,2.3317,2.3329,2.3362,2.3375,2.3412,2.3395,2.3408,2.3436,2.345,2.3488,2.3446,2.3489,2.3491,2.348,2.3559,2.3569,2.3629,2.3535,2.3536,2.3537,0,2.3153,2.3187,2.3261,2.3291,2.3307,2.3342,2.3377,2.341,2.3438,2.3445,2.3469,2.3468,2.3512,2.3484,2.3543,2.3514,2.3532,2.3542,2.3544,2.3547,2.3516,2.3563,2.3648,2.3657,2.3551,2.355,2.3549,0,2.3202,2.3266,2.3318,2.3334,2.3372,2.3396,2.3412,2.3439,2.3461,2.3492,2.3506,2.3542,2.3561,2.3587,2.3595,2.3575,2.3652,2.3626,2.3657,2.3657,2.3673,2.3671,2.376,2.3687,2.3687,2.3687,2.3687,0,2.3277,2.3322,2.334,2.3372,2.3421,2.343,2.3478,2.3493,2.3516,2.3549,2.3547,2.3577,2.3587,2.3619,2.3625,2.3671,2.368,2.3685,2.3686,2.3684,2.3683,2.3695,2.3691,2.3689,2.3689,2.3688,2.3688,0,2.334,2.3355,2.341,2.3441,2.345,2.3485,2.351,2.3539,2.3551,2.3592,2.3603,2.362,2.3657,2.3668,2.3713,2.3717,2.377,2.3768,2.376,2.376,2.3789,2.3786,2.3888,2.3901,2.3821,2.3822,2.3822,0,2.3386,2.3421,2.3455,2.3477,2.3495,2.3531,2.3554,2.3563,2.3586,2.3621,2.3645,2.3682,2.3712,2.3771,2.3787,2.382,2.3817,2.3851,2.3822,2.3819,2.3815,2.3813,2.3815,2.3856,2.3857,2.3857,2.3858,0,2.3466,2.3471,2.3505,2.3541,2.3568,2.3597,2.3624,2.3642,2.3654,2.3681,2.3719,2.3742,2.3787,2.3823,2.3856,2.3871,2.3866,2.3867,2.3875,2.3874,2.3867,2.3869,2.3773,2.3864,2.3864,2.3863,2.3863,2.3863,2.352,2.355,2.3578,2.3615,2.3637,2.3662,2.3691,2.3706,2.3738,2.3776,2.3779,2.382,2.3845,2.389,2.3906,2.3937,2.3927,2.394,2.3942,2.3945,2.3946,2.3864,2.3943,2.3943,2.3943,2.3943,2.3942,0,2.3598,2.3616,2.365,2.3688,2.3717,2.3711,2.374,2.3764,2.38,2.3825,2.3854,2.3897,2.3931,2.3949,2.3982,2.4003,2.4001,2.4011,2.4009,2.4012,2.3955,2.3943,2.4012,2.4012,2.4012,2.4012,2.4012,2.4012,2.3641,2.369,2.3699,2.3757,2.3774,2.3815,2.3832,2.3854,2.3874,2.3922,2.395,2.3962,2.3983,2.4018,2.4048,2.4053,2.4064,2.4075,2.4078,2.4024,2.4016,2.4009,2.3998,2.4078,2.4078,2.4132,2.4133,2.4133]},{"header":{"parameterUnit":"m.s-1","parameterCategory":1,"la1":30.2991,"la2":30.254,"lo1":-89.0895,"lo2":-89.0444,"dy":0.0017,"dx":0.0017,"nx":28,"ny":28,"refTime":"2025-05-16T03:00:00:Z","depth":0,"parameterNumber":3,"parameterNumberName":"V-component_of_WINDS"},"data":[0,0,0,0,0,0,0,0,0,0,0,0,0,0,0,0,0,0,0,0,0,0,0,0,0,0,0,0,0,0,0,0,0,0,0,0,0,0,0,0,0,0,0,0,0,0,0,0,0,0,0,0,0,0,0,0,0,0,5.7,5.7001,0,5.7123,5.7125,5.7126,5.7096,5.7093,5.7091,5.7089,5.7206,5.7212,5.7217,0,0,0,0,0,0,0,0,0,0,0,0,0,5.6728,5.6733,5.7,5.7001,5.7003,5.7123,5.7125,5.7126,5.7096,5.7093,5.709,5.7088,5.7205,5.7211,5.7217,0,0,0,0,0,0,0,0,0,0,0,0,0,5.6848,5.6735,5.6999,5.7002,5.7004,5.7123,5.7125,5.7127,5.7097,5.7093,5.709,5.7086,5.7203,5.721,5.7218,5.7339,0,0,5.7243,5.7246,0,0,0,0,0,0,0,0,5.6841,5.6858,5.7,5.7002,5.7004,5.7091,5.7072,5.7198,5.7098,5.7061,5.7089,5.7084,5.717,5.7181,5.7211,5.7345,5.735,5.7244,5.7248,5.7252,5.7254,0,0,0,0,0,0,0,5.6833,5.6852,5.7048,5.7002,5.7005,5.6994,5.7008,5.7096,5.7134,5.7064,5.7062,5.7078,5.717,5.7204,5.7214,5.7351,5.7243,5.725,5.7255,5.7259,5.7588,5.7591,0,0,0,0,0,0,5.6824,5.6846,5.7044,5.7052,5.6913,5.7002,5.7017,5.7066,5.7133,5.714,5.7081,5.7076,5.7192,5.7205,5.7218,5.7363,5.7252,5.7259,5.7264,5.7584,5.7589,5.7593,0,0,0,0,0,0,5.6819,5.6842,5.7039,5.6949,5.6973,5.7011,5.7066,5.7071,5.7104,5.7146,5.7151,5.7108,5.7189,5.7207,5.7309,5.7367,5.7263,5.727,5.7579,5.7585,5.7591,5.7655,0,0,0,0,0,0,5.6811,5.6841,5.6889,5.695,5.6978,5.7132,5.707,5.7076,5.7119,5.7114,5.7173,5.7179,5.7188,5.7298,5.7317,5.7376,5.7276,5.7574,5.7582,5.7589,5.7648,5.7662,5.7675,0,0,0,0,0,5.6802,5.6901,5.6892,5.6916,5.704,5.7136,5.7151,5.7162,5.7124,5.7171,5.7198,5.7177,5.7357,5.7308,5.733,5.7392,5.7571,5.758,5.7588,5.7642,5.7659,5.7674,0,0,0,0,0,0,5.6843,5.6909,5.69,5.7023,5.7074,5.713,5.7191,5.718,5.7241,5.7234,5.7241,5.7255,5.736,5.7386,5.733,5.7511,5.7458,5.7472,5.7491,5.7508,5.7521,5.7513,5.7283,0,0,0,0,0,5.6867,5.6942,5.6994,5.7097,5.7124,5.7153,5.7195,5.7199,5.7251,5.7272,5.7306,5.7355,5.7422,5.7466,5.7531,5.7651,5.7662,5.7704,5.7717,5.7728,5.774,5.7804,5.7823,5.7622,5.7622,5.7622,0,0,5.6916,5.6961,5.7008,5.7107,5.7147,5.7222,5.7171,5.7253,5.7307,5.7283,5.7383,5.741,5.7464,5.7576,5.7627,5.7601,5.7798,5.7739,5.7748,5.7754,5.7815,5.7834,5.7851,5.7628,5.7627,5.7626,0,0,5.7045,5.7087,5.7178,5.7219,5.7282,5.7301,5.7322,5.738,5.7398,5.7499,5.7482,5.7545,5.7661,5.7701,5.7736,5.7878,5.7861,5.7899,5.7969,5.8031,5.8047,5.8061,5.8111,5.8129,5.791,5.791,5.791,0,5.7097,5.7213,5.7224,5.7308,5.7351,5.7335,5.7424,5.7463,5.7542,5.7571,5.7541,5.7687,5.7722,5.7843,5.7878,5.7907,5.793,5.7892,5.8044,5.8058,5.8072,5.8119,5.8138,5.7914,5.7914,5.7913,5.7913,0,5.7274,5.7353,5.7418,5.7498,5.7548,5.7634,5.7656,5.7704,5.7703,5.7724,5.7825,5.7867,5.794,5.7968,5.7967,5.8088,5.807,5.8043,5.7989,5.8095,5.814,5.8158,5.792,5.7919,5.7918,5.7917,0,0,5.7433,5.7519,5.7542,5.7578,5.7645,5.7705,5.7789,5.7862,5.7903,5.7957,5.8026,5.8125,5.8099,5.8139,5.8142,5.8197,5.8305,5.8162,5.8163,5.8187,5.844,5.8461,5.8482,5.8294,5.8297,5.83,5.8435,0,5.7567,5.7719,5.7731,5.7866,5.7939,5.7924,5.7996,5.8043,5.8064,5.8126,5.8147,5.8217,5.8179,5.8203,5.8256,5.8281,5.8356,5.8271,5.8356,5.8359,5.8343,5.8505,5.8528,5.8653,5.8453,5.8456,5.8458,0,5.7744,5.7807,5.7951,5.8007,5.8038,5.8104,5.8171,5.8231,5.8283,5.8294,5.8339,5.8334,5.8416,5.8359,5.8472,5.8414,5.8448,5.8465,5.847,5.8479,5.8415,5.8518,5.8693,5.8712,5.8485,5.8483,5.8481,0,5.7846,5.7966,5.8067,5.8098,5.8166,5.8212,5.8242,5.8291,5.8334,5.8392,5.8419,5.8484,5.852,5.8569,5.858,5.8538,5.8692,5.8637,5.8702,5.8702,5.8736,5.8733,5.8919,5.8758,5.8758,5.8757,5.8757,0,5.7995,5.8083,5.8114,5.8176,5.8273,5.8284,5.8379,5.8405,5.8449,5.8513,5.8502,5.8562,5.8574,5.8635,5.8644,5.8735,5.8751,5.876,5.8762,5.8762,5.8761,5.8785,5.8776,5.8762,5.8761,5.876,5.8759,0,5.8125,5.8149,5.8259,5.8315,5.8331,5.84,5.8446,5.8504,5.8523,5.8605,5.8625,5.8654,5.8726,5.8742,5.8826,5.8832,5.894,5.8932,5.8924,5.8923,5.8987,5.8981,5.9196,5.9224,5.9044,5.9046,5.9047,0,5.8219,5.8287,5.8351,5.8395,5.8428,5.8499,5.8543,5.8555,5.8601,5.8665,5.8715,5.8786,5.8844,5.8958,5.8985,5.9049,5.9043,5.9113,5.9052,5.905,5.9043,5.9039,5.9046,5.9125,5.9127,5.9129,5.913,0,5.8382,5.8391,5.8457,5.8528,5.8582,5.8637,5.8689,5.8725,5.8744,5.8795,5.887,5.8915,5.9002,5.9072,5.9136,5.9163,5.9149,5.9149,5.9167,5.9168,5.916,5.9165,5.8956,5.9144,5.9143,5.9142,5.9141,5.914,5.8497,5.8557,5.8611,5.8685,5.8726,5.8775,5.8832,5.8859,5.8923,5.8997,5.8999,5.908,5.9128,5.9213,5.9244,5.9305,5.9283,5.931,5.9316,5.9323,5.9329,5.9151,5.9316,5.9316,5.9316,5.9315,5.9315,0,5.866,5.8695,5.8762,5.8837,5.8894,5.8879,5.8935,5.8983,5.9056,5.9103,5.9161,5.9245,5.9313,5.9345,5.9411,5.9453,5.9448,5.947,5.9467,5.9473,5.9345,5.9323,5.9473,5.9473,5.9473,5.9473,5.9473,5.9473,5.8752,5.8851,5.8866,5.8984,5.9017,5.9099,5.9133,5.9177,5.9214,5.9311,5.9368,5.9389,5.9429,5.9498,5.9558,5.9565,5.9589,5.9614,5.9618,5.9498,5.9482,5.9467,5.9446,5.962,5.962,5.9741,5.9742,5.9743]}]]